Temperature
19 19 19 19 18 18 19 19 19 19 18 19 19 19 19 19 19 19 19 19 19 19 19 19 19 19 18 18 18 18 18 18 18 18 18 18 18 18 18 18 18 18 18
19 19 19 19 19 19 18 19 19 19 19 19 19 19 19 19 19 19 19 19 19 19 19 19 19 19 18 18 18 18 18 18 18 18 18 18 18 18 18 18 18 18 18
20 19 19 19 19 19 19 19 19 19 19 19 19 18 18 19 19 19 19 19 19 19 19 19 18 18 18 18 18 18 18 18 18 18 18 18 18 18 18 18 18 18 18
20 19 19 19 19 19 19 19 19 19 18 18 18 18 18 18 18 19 19 19 18 18 18 18 18 18 18 18 18 18 18 18 18 18 18 18 18 18 18 18 18 18 17
20 19 19 19 19 19 19 19 19 18 18 18 18 18 18 18 18 18 18 18 18 18 18 18 18 18 18 18 18 18 18 18 18 18 18 18 18 18 18 17 17 17 17
20 19 19 19 19 19 18 19 19 18 18 18 19 19 19 18 18 18 18 18 18 18 18 18 18 18 18 18 18 18 18 18 18 18 18 18 18 18 17 17 17 17 17
20 19 19 19 19 19 19 19 19 19 18 19 19 19 19 18 18 18 18 18 18 18 18 18 18 18 18 18 18 18 18 18 18 18 18 18 17 17 17 17 17 17 17
20 19 19 19 19 19 19 19 19 19 19 19 19 18 18 18 18 18 18 18 18 18 18 18 18 18 18 18 18 18 18 18 18 18 18 18 17 17 17 17 17 17 17
19 19 19 19 19 19 19 19 19 18 18 18 19 18 18 18 18 18 18 18 18 18 18 18 18 18 18 18 18 18 18 18 18 18 18 18 17 17 17 17 17 17 17
19 19 19 19 19 19 19 19 19 18 18 18 18 18 18 18 18 18 18 18 18 18 18 18 18 18 18 18 18 18 18 18 18 18 18 18 18 17 17 17 17 17 17
19 19 19 19 19 19 19 19 18 18 18 18 18 18 18 18 18 18 18 18 18 18 18 18 18 18 18 18 18 18 18 18 18 18 18 18 18 17 17 17 17 17 17
19 19 19 19 19 19 19 19 19 18 18 18 18 18 18 18 18 18 18 18 18 18 18 18 18 18 18 18 18 18 18 18 18 18 18 18 18 18 17 17 17 17 17
19 19 19 19 19 19 19 19 19 18 18 18 18 18 18 18 18 18 18 18 18 18 18 18 18 18 18 18 18 18 18 18 18 18 18 18 18 18 18 17 17 17 17
20 20 19 19 19 19 19 19 19 18 18 18 18 18 18 18 18 18 18 18 18 18 18 18 18 18 18 18 18 18 18 18 18 18 18 18 18 18 18 17 17 17 17
20 20 20 19 19 19 19 19 19 18 18 18 18 18 18 18 18 18 18 18 18 18 18 18 18 18 18 18 18 18 18 18 18 18 18 18 18 18 18 18 17 17 17
20 20 20 20 19 19 19 19 19 19 18 18 18 18 18 18 18 18 18 18 18 18 18 18 18 18 18 18 18 18 18 18 18 18 18 18 18 18 18 18 17 17 17
20 20 20 20 20 19 19 19 19 19 19 19 18 18 18 18 18 18 18 18 18 18 18 18 18 18 18 18 18 18 18 18 18 18 18 18 18 18 18 18 17 17 17
21 20 20 20 20 20 19 19 19 19 19 19 19 19 19 18 18 18 18 18 18 18 18 18 18 18 18 18 18 18 18 18 18 18 18 18 18 18 18 18 18 17 17
21 21 20 20 20 20 20 19 19 19 19 19 19 19 19 19 18 18 18 18 18 18 18 18 18 18 18 18 18 18 18 18 18 18 18 18 18 18 18 18 18 18 17
21 21 21 20 20 20 20 20 19 19 19 19 19 19 19 19 18 18 18 18 18 18 18 18 18 18 18 18 18 18 18 18 18 18 18 18 18 18 18 18 18 18 17
21 21 21 21 20 20 20 20 20 19 19 19 19 19 19 19 18 18 18 18 18 18 18 18 18 18 18 18 18 18 18 18 18 18 18 18 18 18 18 17 18 17 17
22 22 21 21 21 20 20 20 20 19 19 19 19 19 18 18 18 18 18 18 18 18 18 18 18 18 18 17 17 17 17 18 18 18 18 18 17 17 18 17 17 17 17
22 22 22 21 21 20 20 20 20 19 19 19 19 19 19 19 18 18 18 18 18 18 18 18 18 18 18 17 17 17 17 17 17 17 17 17 17 17 17 17 17 17 17
23 22 22 21 21 20 20 20 20 20 20 20 19 19 19 19 19 18 18 18 18 18 18 18 18 18 17 17 17 17 17 17 16 17 17 17 17 17 17 17 17 17 17
23 22 22 22 21 21 20 20 20 20 20 19 19 19 19 19 18 18 18 18 18 18 18 18 18 18 17 17 17 17 17 17 17 16 16 17 17 17 17 17 17 17 17
23 23 22 22 22 21 21 20 20 20 20 19 19 19 19 19 18 18 18 18 18 18 18 18 18 18 17 17 17 17 17 17 16 16 16 17 17 17 17 17 17 17 17
Wind_Speed
2 3 6 7 7 8 9 10 11 11 12 12 11 11 12 12 13 13 14 13 14 13 12 12 12 12 11 11 11 11 11 11 10 10 11 11 10 10 11 11 9 9 10
4 5 7 7 8 9 10 10 11 11 11 11 11 11 11 12 12 12 13 13 12 12 11 11 11 11 11 10 11 11 10 10 10 9 9 9 10 10 10 11 10 8 10
5 5 7 8 9 9 9 10 10 11 11 11 11 11 11 11 11 11 11 11 11 11 10 10 10 10 10 10 10 10 9 9 9 8 8 7 8 9 10 10 10 10 9
5 5 6 9 9 9 9 10 10 10 11 11 10 11 11 11 10 10 10 10 10 9 9 9 9 9 9 9 9 9 9 8 8 7 6 6 6 9 10 10 10 10 9
5 5 6 9 9 9 10 9 10 10 10 10 10 10 10 10 10 9 9 9 9 8 8 8 8 8 8 8 8 8 8 8 7 6 6 6 7 8 9 9 10 10 9
4 4 6 9 9 9 9 9 9 9 9 9 9 9 9 9 8 8 8 8 7 7 7 7 7 7 7 7 7 7 7 7 6 5 5 6 7 8 9 9 9 10 9
4 4 5 8 8 9 9 9 9 9 9 9 8 8 8 7 7 7 7 6 7 7 7 7 6 6 6 6 6 6 6 6 5 4 4 6 7 9 10 10 10 10 9
4 3 4 6 8 8 9 8 8 9 8 8 7 7 6 6 5 5 6 6 6 6 7 7 6 6 5 5 6 6 6 6 5 4 5 6 9 10 10 11 11 10 10
3 3 2 3 5 7 8 8 7 7 7 7 6 5 5 5 4 4 5 5 6 6 6 7 6 6 5 5 5 6 6 6 4 4 5 6 9 11 10 11 11 11 11
2 2 2 2 2 4 5 7 7 6 6 5 5 4 4 3 3 3 4 4 5 6 6 6 6 5 5 4 5 5 5 5 4 5 5 7 9 11 11 11 11 12 12
2 1 1 1 1 2 3 4 5 5 5 4 3 3 2 1 1 1 3 3 4 5 6 6 6 5 5 5 6 5 4 2 3 4 5 7 9 11 11 11 11 12 12
3 3 2 2 2 2 2 2 2 3 3 2 2 1 1 1 1 1 2 3 3 4 5 5 5 5 4 2 4 4 2 3 3 4 6 8 10 11 11 11 11 11 11
4 3 3 3 2 2 1 1 1 1 1 1 2 1 1 1 1 0 0 1 2 2 2 2 2 2 1 1 2 2 3 3 4 5 6 9 9 10 11 11 11 11 11
4 4 3 3 3 3 2 1 1 1 1 1 2 2 2 1 0 0 0 1 0 1 0 0 0 1 1 2 2 3 4 4 4 5 6 9 9 10 10 10 10 11 12
5 5 4 4 4 2 2 2 2 2 2 2 2 2 2 1 1 0 0 1 1 1 1 1 1 1 1 2 3 3 4 5 5 5 6 9 9 10 11 10 10 10 11
5 5 4 4 4 4 3 2 2 2 2 2 2 2 2 2 1 1 0 0 1 1 1 1 1 1 2 2 3 4 5 5 5 6 6 8 10 10 10 10 10 11 11
5 4 4 4 4 4 4 3 2 2 2 2 2 2 2 2 2 1 0 1 1 1 1 0 0 0 1 2 3 4 4 5 5 6 6 6 7 8 9 10 10 10 10
5 4 4 4 4 4 3 3 2 2 2 2 2 2 2 2 2 1 1 1 1 0 1 1 0 0 1 2 2 3 3 3 4 5 5 5 5 5 6 8 9 9 10
5 5 4 4 5 4 3 2 2 2 2 2 2 2 2 2 2 2 1 1 0 1 0 1 0 1 1 2 2 2 2 3 3 4 4 4 5 5 5 7 8 9 9
5 5 4 4 4 4 3 2 1 1 0 1 1 2 2 2 2 2 1 1 1 1 0 0 0 0 1 1 2 2 2 3 2 3 3 3 4 4 5 6 6 7 9
4 5 5 5 4 4 2 2 2 2 1 1 2 2 3 3 3 2 1 1 1 1 1 1 1 0 1 1 1 2 2 2 2 2 2 2 3 4 5 5 5 6 6
6 6 5 5 5 5 3 3 2 2 2 2 1 1 2 2 3 2 2 1 1 1 0 1 1 1 1 1 1 1 3 3 2 1 1 2 3 3 4 5 5 6 6
6 7 7 6 5 4 3 2 2 2 1 1 0 1 1 2 2 2 2 2 1 2 1 1 2 2 1 0 0 1 0 2 2 2 1 1 2 2 3 4 5 5 6
7 6 6 6 5 5 4 4 4 4 3 3 2 1 1 0 1 1 1 1 2 1 2 2 1 2 2 1 0 1 1 2 1 2 2 2 3 3 3 3 4 4 5
7 6 6 6 5 5 5 6 5 4 3 2 1 1 1 1 1 0 1 1 1 1 1 1 1 1 1 2 1 1 1 0 1 1 3 3 3 3 3 3 3 3 4
6 6 6 6 5 5 6 6 6 6 5 3 2 1 1 1 1 1 1 1 1 1 1 2 1 1 2 2 1 1 2 1 1 2 2 3 4 3 3 2 2 3 4
Wind_Direction
203 193 162 148 136 131 128 123 118 117 119 120 120 123 126 131 135 138 142 145 145 146 148 147 145 145 147 145 146 146 148 149 151 149 151 154 155 153 153 156 153 150 150
170 170 161 151 141 135 130 127 124 125 125 122 123 127 129 130 134 141 143 145 148 149 150 150 150 153 154 154 153 153 156 156 157 158 160 159 160 161 162 161 161 158 159
138 150 159 148 139 136 133 130 129 129 127 126 128 130 132 134 136 140 146 148 151 153 154 155 156 157 158 160 160 160 162 163 164 165 168 162 165 169 168 169 169 165 165
132 140 153 145 142 138 135 130 130 131 130 129 131 129 132 137 139 142 147 152 155 157 159 159 158 161 161 162 166 167 168 170 172 172 170 169 173 177 177 177 174 169 168
123 138 159 147 146 143 140 137 135 132 130 131 132 131 135 139 140 143 148 155 161 162 160 158 160 164 166 169 174 177 177 176 180 176 170 178 184 188 185 182 175 176 174
119 133 157 149 149 147 145 144 141 139 136 136 136 137 140 143 145 146 151 157 163 162 161 163 165 168 173 179 181 184 184 188 189 184 179 188 191 196 192 185 185 185 183
116 127 152 150 150 150 148 149 148 146 143 144 143 145 148 151 154 156 161 164 168 170 172 172 171 171 173 179 187 193 197 200 191 185 188 196 198 199 198 194 193 192 194
122 130 148 154 152 153 152 151 151 151 149 150 151 153 153 157 164 169 173 174 173 177 180 178 180 185 187 190 196 200 208 211 203 200 202 206 208 208 207 205 201 199 202
113 126 134 156 160 157 158 157 156 156 157 159 161 161 161 164 171 176 176 181 185 189 191 191 193 194 197 201 206 213 220 218 209 212 218 219 218 217 216 212 209 208 208
102 117 133 141 150 152 161 165 166 163 164 166 169 171 173 176 187 195 188 196 200 204 204 204 205 205 209 213 219 224 226 229 223 225 231 232 229 227 223 219 218 216 213
159 155 150 169 165 156 164 175 178 173 182 181 182 184 189 211 266 231 208 213 210 213 213 211 214 219 231 234 235 232 231 220 218 228 232 239 236 235 231 226 225 221 216
202 212 203 203 195 182 192 182 176 174 183 186 187 196 197 250 249 230 233 236 233 228 221 217 224 231 248 253 243 244 235 224 226 238 241 244 241 239 237 232 229 223 218
200 206 207 207 195 186 206 186 159 163 172 190 219 231 234 262 254 239 12 278 268 256 250 244 245 251 240 227 246 247 242 236 234 244 250 251 248 244 240 236 229 225 221
187 203 205 196 191 195 199 209 184 180 180 205 229 226 193 183 206 213 253 284 312 301 306 276 222 247 232 226 231 240 243 241 241 242 251 254 250 247 244 239 236 233 229
195 202 195 185 185 182 182 215 191 189 188 204 218 216 186 186 208 216 288 287 264 226 199 197 214 236 252 251 248 247 251 247 247 244 250 254 251 249 248 245 245 241 235
200 199 189 185 188 173 180 193 199 183 182 187 202 207 196 200 194 185 253 320 286 242 215 206 213 232 254 250 254 251 252 249 245 246 249 258 258 252 248 247 247 247 243
197 195 188 184 174 174 181 187 185 180 166 170 202 207 200 198 197 179 199 272 276 257 184 110 96 240 267 265 267 261 254 250 244 247 250 255 261 260 255 251 249 249 248
186 187 191 186 165 174 174 168 166 166 165 182 203 204 220 213 197 171 203 251 263 155 126 140 216 288 288 277 272 271 265 263 261 253 249 251 254 256 262 260 256 250 247
185 182 179 172 166 173 168 155 156 152 164 183 186 199 220 215 192 174 209 250 213 117 136 221 206 223 269 288 279 273 270 262 262 261 257 256 253 251 254 259 261 257 254
175 175 176 172 169 157 141 125 117 123 178 181 190 213 211 206 195 175 188 230 161 133 176 167 189 243 251 283 297 303 283 269 256 255 258 260 258 254 253 254 258 260 260
167 172 179 175 174 156 145 150 156 198 208 203 220 225 212 208 196 178 184 186 179 184 212 184 164 40 352 353 12 333 317 290 264 256 260 265 272 267 260 253 253 258 260
186 186 185 186 182 179 175 167 165 165 188 202 236 232 227 214 206 190 183 196 198 186 172 154 140 101 2 41 83 17 338 336 332 303 277 260 275 271 268 260 251 253 256
194 195 195 191 186 183 166 134 118 90 61 62 241 252 257 214 203 197 187 189 195 188 204 204 171 160 198 321 118 142 145 290 309 311 288 283 292 286 279 273 264 259 256
204 194 188 183 183 180 161 161 170 176 186 203 212 230 273 223 183 193 197 187 194 188 195 219 192 193 183 229 252 224 205 198 251 311 313 306 301 290 286 287 280 273 269
196 185 184 180 186 180 171 177 180 190 195 187 170 186 281 319 313 254 230 188 187 189 194 207 187 197 200 206 202 211 219 209 213 232 293 313 319 301 294 289 289 290 290
188 183 177 176 189 179 176 182 188 189 183 177 183 188 228 292 303 299 263 221 207 196 204 209 207 219 235 223 210 206 213 210 220 221 261 290 299 300 303 296 300 296 291
Height
1502 1502 1503 1503 1503 1504 1504 1505 1505 1505 1506 1508 1509 1510 1512 1513 1515 1517 1519 1520 1522 1524 1526 1527 1529 1530 1532 1533 1535 1536 1538 1539 1540 1542 1543 1544 1545 1546 1547 1548 1549 1550 1551
1502 1503 1503 1504 1504 1505 1506 1506 1507 1507 1508 1510 1511 1512 1513 1515 1517 1518 1520 1522 1523 1525 1527 1528 1530 1531 1532 1534 1535 1537 1538 1540 1541 1542 1543 1544 1545 1546 1547 1548 1549 1550 1551
1503 1504 1504 1505 1506 1507 1507 1508 1509 1509 1510 1511 1513 1514 1515 1517 1518 1520 1521 1523 1524 1526 1527 1529 1530 1531 1533 1534 1535 1537 1538 1540 1541 1542 1543 1544 1545 1546 1547 1548 1549 1550 1551
1504 1505 1506 1506 1507 1508 1509 1510 1510 1511 1512 1513 1515 1516 1517 1518 1520 1521 1523 1524 1525 1527 1528 1530 1531 1532 1533 1534 1536 1537 1538 1540 1541 1542 1543 1544 1545 1546 1547 1548 1548 1549 1550
1506 1507 1507 1508 1509 1510 1511 1512 1512 1513 1514 1515 1516 1517 1518 1520 1521 1522 1524 1525 1526 1528 1529 1530 1532 1533 1534 1535 1536 1537 1538 1539 1541 1542 1542 1543 1544 1545 1546 1547 1547 1549 1550
1507 1508 1509 1510 1510 1511 1512 1513 1514 1515 1516 1517 1518 1519 1520 1521 1522 1524 1525 1526 1527 1528 1530 1531 1532 1533 1534 1535 1536 1537 1538 1539 1540 1541 1541 1542 1543 1544 1545 1546 1547 1548 1549
1509 1510 1511 1511 1512 1513 1514 1515 1516 1517 1517 1518 1519 1520 1521 1522 1523 1524 1526 1527 1527 1528 1530 1531 1532 1533 1534 1535 1536 1537 1538 1539 1539 1540 1541 1541 1542 1543 1544 1545 1546 1547 1548
1511 1511 1512 1513 1513 1514 1515 1516 1517 1518 1519 1520 1521 1521 1522 1523 1524 1525 1526 1527 1528 1529 1530 1531 1532 1533 1534 1535 1536 1537 1537 1538 1539 1539 1540 1541 1541 1542 1543 1544 1545 1546 1547
1512 1513 1514 1514 1515 1516 1517 1518 1519 1519 1520 1521 1522 1522 1523 1524 1525 1526 1526 1527 1528 1529 1530 1531 1532 1533 1534 1535 1536 1536 1537 1538 1538 1539 1539 1540 1540 1541 1542 1542 1543 1544 1545
1514 1514 1515 1516 1517 1517 1518 1519 1520 1520 1521 1522 1523 1523 1524 1525 1525 1526 1527 1527 1528 1528 1530 1531 1532 1533 1534 1534 1535 1535 1536 1537 1537 1538 1538 1539 1539 1539 1540 1541 1542 1542 1543
1515 1515 1516 1517 1518 1519 1519 1520 1521 1522 1522 1523 1524 1524 1525 1525 1526 1526 1527 1527 1528 1528 1529 1530 1532 1532 1533 1534 1534 1535 1535 1536 1536 1537 1537 1538 1538 1538 1538 1539 1540 1541 1541
1515 1516 1517 1518 1519 1520 1520 1521 1522 1522 1523 1524 1524 1525 1526 1526 1526 1527 1527 1527 1528 1528 1529 1530 1531 1532 1533 1533 1533 1534 1534 1535 1535 1535 1536 1536 1536 1536 1537 1537 1538 1539 1539
1516 1517 1518 1519 1520 1520 1521 1522 1522 1523 1524 1524 1525 1525 1526 1526 1527 1527 1527 1527 1528 1528 1529 1530 1530 1531 1532 1532 1533 1533 1533 1534 1534 1534 1534 1534 1534 1534 1535 1535 1536 1536 1537
1516 1517 1518 1519 1520 1521 1522 1522 1523 1524 1524 1525 1525 1526 1526 1526 1527 1527 1527 1527 1528 1528 1529 1529 1530 1530 1531 1531 1532 1532 1532 1532 1532 1532 1532 1533 1533 1533 1533 1534 1534 1534 1534
1517 1518 1519 1520 1521 1522 1522 1523 1524 1524 1525 1525 1526 1526 1526 1527 1527 1527 1527 1528 1528 1528 1528 1528 1529 1530 1530 1530 1531 1530 1530 1530 1530 1530 1530 1531 1531 1531 1532 1532 1532 1532 1532
1517 1518 1519 1520 1521 1522 1522 1523 1524 1525 1525 1526 1526 1526 1527 1527 1527 1527 1528 1528 1528 1528 1528 1528 1529 1529 1529 1529 1529 1529 1529 1529 1528 1528 1529 1529 1529 1529 1530 1530 1530 1530 1531
1517 1519 1520 1521 1522 1522 1523 1524 1525 1525 1526 1526 1526 1527 1527 1527 1528 1528 1527 1527 1527 1527 1527 1528 1528 1528 1528 1528 1528 1527 1527 1527 1527 1527 1527 1527 1528 1528 1528 1528 1528 1528 1528
1518 1519 1520 1521 1522 1522 1523 1524 1525 1525 1526 1526 1527 1527 1527 1528 1528 1528 1527 1527 1527 1527 1527 1527 1527 1527 1527 1526 1526 1526 1526 1526 1526 1526 1526 1526 1526 1526 1526 1526 1526 1526 1527
1518 1519 1520 1521 1522 1523 1523 1524 1525 1526 1526 1526 1527 1527 1527 1528 1528 1528 1527 1527 1527 1527 1527 1526 1526 1526 1526 1525 1525 1525 1525 1525 1525 1525 1525 1524 1524 1524 1524 1524 1525 1525 1525
1518 1519 1520 1521 1522 1523 1523 1524 1525 1525 1526 1526 1527 1527 1527 1528 1528 1528 1527 1527 1527 1527 1526 1526 1526 1525 1525 1524 1524 1524 1523 1523 1523 1523 1523 1523 1523 1523 1523 1523 1523 1523 1523
1518 1519 1520 1521 1521 1522 1523 1523 1524 1524 1525 1526 1527 1527 1527 1528 1528 1527 1527 1527 1526 1526 1526 1525 1525 1524 1524 1524 1523 1522 1522 1522 1522 1522 1522 1522 1522 1521 1521 1521 1521 1521 1521
1517 1518 1519 1520 1521 1522 1522 1523 1524 1524 1525 1526 1527 1527 1527 1527 1527 1527 1527 1526 1526 1526 1525 1525 1524 1524 1524 1523 1522 1522 1521 1522 1521 1521 1521 1520 1520 1520 1520 1519 1519 1519 1518
1515 1516 1518 1519 1520 1521 1522 1523 1524 1524 1524 1525 1526 1526 1526 1527 1527 1526 1526 1526 1525 1525 1525 1524 1524 1523 1523 1523 1522 1522 1522 1520 1520 1519 1519 1519 1519 1518 1518 1517 1517 1516 1516
1514 1515 1516 1518 1519 1521 1521 1522 1522 1523 1523 1524 1524 1525 1525 1525 1526 1525 1525 1525 1524 1524 1524 1524 1523 1523 1522 1522 1522 1521 1522 1520 1519 1518 1518 1518 1518 1517 1516 1515 1515 1514 1514
1512 1514 1515 1517 1518 1519 1520 1520 1521 1521 1522 1522 1523 1524 1524 1525 1525 1525 1524 1524 1524 1523 1523 1523 1522 1522 1521 1521 1520 1520 1520 1519 1518 1517 1516 1516 1516 1515 1514 1513 1513 1512 1511
1510 1512 1513 1515 1516 1517 1518 1518 1519 1519 1520 1521 1522 1522 1523 1523 1524 1524 1523 1523 1522 1522 1522 1522 1521 1521 1520 1520 1519 1518 1518 1518 1517 1516 1515 1514 1513 1513 1512 1511 1511 1510 1509